TimeCDT,TemperatureF,Dew PointF,Humidity,Sea Level PressureIn,VisibilityMPH,Wind Direction,Wind SpeedMPH,Gust SpeedMPH,PrecipitationIn,Events,Conditions,WindDirDegrees,DateUTC
12:53 AM,55.0,54.0,96,30.03,3.0,Calm,Calm,-,N/A,,Scattered Clouds,0,2012-10-03 05:53:00
12:57 AM,55.4,53.6,94,30.04,1.8,Calm,Calm,-,N/A,,Mostly Cloudy,0,2012-10-03 05:57:00
12:59 AM,55.4,53.6,94,30.04,1.2,Calm,Calm,-,N/A,,Mostly Cloudy,0,2012-10-03 05:59:00
1:04 AM,55.4,53.6,94,30.04,1.0,Calm,Calm,-,N/A,,Mist,0,2012-10-03 06:04:00
1:10 AM,55.4,53.6,94,30.04,0.5,Calm,Calm,-,N/A,Fog,Fog,0,2012-10-03 06:10:00
1:47 AM,55.4,53.6,94,30.04,1.0,Calm,Calm,-,N/A,,Mist,0,2012-10-03 06:47:00
1:50 AM,55.4,53.6,94,30.04,1.5,Calm,Calm,-,N/A,,Mostly Cloudy,0,2012-10-03 06:50:00
1:53 AM,55.0,54.0,96,30.04,2.5,Calm,Calm,-,N/A,,Mostly Cloudy,0,2012-10-03 06:53:00
2:00 AM,55.4,53.6,94,30.04,3.0,Calm,Calm,-,0.01,,Mostly Cloudy,0,2012-10-03 07:00:00
2:38 AM,55.4,55.4,100,30.04,7.0,Calm,Calm,-,0.01,,Scattered Clouds,0,2012-10-03 07:38:00
2:53 AM,55.9,55.0,97,30.03,7.0,Calm,Calm,-,0.01,,Clear,0,2012-10-03 07:53:00
3:14 AM,55.4,53.6,94,30.04,2.5,Calm,Calm,-,N/A,,Clear,0,2012-10-03 08:14:00
3:24 AM,55.4,53.6,94,30.04,4.0,Calm,Calm,-,N/A,,Clear,0,2012-10-03 08:24:00
3:47 AM,55.4,53.6,94,30.04,1.8,Calm,Calm,-,N/A,,Clear,0,2012-10-03 08:47:00
3:49 AM,55.4,53.6,94,30.05,1.2,Calm,Calm,-,N/A,,Clear,0,2012-10-03 08:49:00
3:53 AM,55.0,54.0,96,30.04,0.8,Calm,Calm,-,N/A,,Clear,0,2012-10-03 08:53:00
4:02 AM,55.4,53.6,94,30.05,1.2,Calm,Calm,-,N/A,,Clear,0,2012-10-03 09:02:00
4:06 AM,55.4,53.6,94,30.05,1.8,Calm,Calm,-,N/A,,Clear,0,2012-10-03 09:06:00
4:10 AM,55.4,53.6,94,30.05,3.0,Calm,Calm,-,N/A,,Clear,0,2012-10-03 09:10:00
4:53 AM,55.0,53.1,93,30.06,8.0,Calm,Calm,-,N/A,,Clear,0,2012-10-03 09:53:00
5:53 AM,54.0,52.0,93,30.08,6.0,Calm,Calm,-,N/A,,Clear,0,2012-10-03 10:53:00
6:53 AM,54.0,53.1,97,30.10,3.0,Calm,Calm,-,N/A,,Partly Cloudy,0,2012-10-03 11:53:00
6:58 AM,53.6,53.6,100,30.11,1.8,Calm,Calm,-,N/A,,Scattered Clouds,0,2012-10-03 11:58:00
7:00 AM,53.6,53.6,100,30.11,1.0,Calm,Calm,-,N/A,,Mist,0,2012-10-03 12:00:00
7:05 AM,53.6,53.6,100,30.11,0.5,Calm,Calm,-,N/A,Fog,Fog,0,2012-10-03 12:05:00
7:12 AM,53.6,53.6,100,30.11,1.0,Calm,Calm,-,N/A,,Mostly Cloudy,0,2012-10-03 12:12:00
7:15 AM,55.4,53.6,94,30.11,1.8,Calm,Calm,-,N/A,,Mostly Cloudy,0,2012-10-03 12:15:00
7:18 AM,55.4,53.6,94,30.11,3.0,Calm,Calm,-,N/A,,Mostly Cloudy,0,2012-10-03 12:18:00
7:29 AM,55.4,53.6,94,30.12,5.0,Calm,Calm,-,N/A,,Scattered Clouds,0,2012-10-03 12:29:00
7:53 AM,59.0,57.0,93,30.12,6.0,Calm,Calm,-,N/A,,Clear,0,2012-10-03 12:53:00
8:53 AM,63.0,59.0,87,30.14,10.0,Calm,Calm,-,N/A,,Clear,0,2012-10-03 13:53:00
9:53 AM,66.0,60.1,81,30.15,10.0,Calm,Calm,-,N/A,,Clear,0,2012-10-03 14:53:00
10:53 AM,69.1,57.0,65,30.15,10.0,NNE,4.6,-,N/A,,Clear,20,2012-10-03 15:53:00
11:53 AM,71.1,55.9,59,30.15,10.0,NNW,4.6,-,N/A,,Clear,340,2012-10-03 16:53:00
12:53 PM,73.0,55.9,55,30.14,10.0,Variable,3.5,-,N/A,,Clear,0,2012-10-03 17:53:00
1:53 PM,72.0,57.0,59,30.13,10.0,ENE,3.5,-,N/A,,Clear,60,2012-10-03 18:53:00
2:53 PM,73.9,57.9,57,30.12,10.0,Variable,3.5,-,N/A,,Clear,0,2012-10-03 19:53:00
3:53 PM,75.0,55.9,51,30.11,10.0,Calm,Calm,-,N/A,,Clear,0,2012-10-03 20:53:00
4:53 PM,73.0,57.9,59,30.12,10.0,East,4.6,-,N/A,,Clear,100,2012-10-03 21:53:00
5:53 PM,71.1,57.9,63,30.14,10.0,Calm,Calm,-,N/A,,Clear,0,2012-10-03 22:53:00
6:53 PM,64.9,60.1,84,30.14,10.0,Calm,Calm,-,N/A,,Clear,0,2012-10-03 23:53:00
7:53 PM,64.0,60.1,87,30.15,10.0,Calm,Calm,-,N/A,,Clear,0,2012-10-04 00:53:00
8:53 PM,62.1,59.0,90,30.17,10.0,Calm,Calm,-,N/A,,Clear,0,2012-10-04 01:53:00
9:53 PM,61.0,59.0,93,30.18,9.0,Calm,Calm,-,N/A,,Clear,0,2012-10-04 02:53:00
10:53 PM,61.0,59.0,93,30.18,8.0,Calm,Calm,-,N/A,,Clear,0,2012-10-04 03:53:00
11:53 PM,61.0,57.9,90,30.18,10.0,Calm,Calm,-,N/A,,Clear,0,2012-10-04 04:53:00